Language selection

Weather shortcuts

Lake of the Woods: Past 24 Hour Conditions

 

Sault Ste. Marie Airport

02:00 PM EDT 14 June 2024
Disclaimer

This table is a summary of hourly weather conditions for the past 24 hours.
Please note that these observations might not always be representative of weather conditions over their associated marine area.

Date / Time
(EDT)
Wind(knots) Conditions Visibility(km) Pressure(kPa) Air tempC) Relative humidity(%) Dew pointC) Humidex
14 June 2024
14:00 WNW 10 Mainly Sunny 24 101.8 17 69 11 *
13:00 WNW 9 Mainly Sunny 24 101.8 17 71 12 *
12:00 W 8 Mainly Sunny 24 101.7 16 74 11 *
11:00 WNW 12 Partly Cloudy 24 101.7 13 80 10 *
10:00 WNW 11 Partly Cloudy 24 101.7 12 85 10 *
9:00 WNW 9 Mainly Sunny 24 101.7 12 93 11 *
8:00 WNW 7 Mostly Cloudy 19 101.6 10 100 10 *
7:00 NW 5 Mostly Cloudy 32 101.5 9 100 9 *
6:00 NW 3 Shallow Fog 24 101.4 8 100 8 *
5:00 NW 7 Mist 6 101.4 9 100 9 *
4:00 WNW 11 Mist 6 101.3 10 100 10 *
3:00 WNW 10 Partly Cloudy 19 101.2 11 100 11 *
2:00 WNW 9 Partly Cloudy 32 101.2 11 100 11 *
1:00 NW 10 Mainly Clear 32 101.1 11 100 11 *
0:00 WNW 9 gusts 16 Mainly Clear 32 101.1 11 94 10 *
13 June 2024
23:00 NW 4 Mainly Clear 32 101.0 10 95 9 *
22:00 NW 5 Partly Cloudy 40 100.9 11 87 9 *
21:00 NW 10 gusts 15 Partly Cloudy 32 100.9 12 85 10 *
20:00 NW 10 gusts 17 Mostly Cloudy 32 100.8 13 93 12 *
19:00 NW 14 gusts 22 Mostly Cloudy 19 100.8 13 96 13 *
18:00 WNW 8 Mostly Cloudy 19 100.7 16 100 16 *
17:00 WNW 8 Light Rainshower 16 100.6 16 100 16 *
16:00 WSW 6 Thunderstorm with light rainshowers 16 100.6 16 100 16 *
15:00 NW 6 Thunderstorm with light rainshowers 16 100.5 18 84 16 *
14:00 NNW 14 Thunderstorm 24 100.3 22 69 16 27

Zoom-in to make a selection

Map of Great Lakes - Lake Superior marine weather areas Mid Superior - 45001 East Superior - 45004 West Superior - 45006 Slate Island - 45136 Lake Of the Woods - 45148 Kenora Airport Royal Island Armstrong Airport Caribou Island Marathon Airport Pukaskwa National Park Thunder Bay Airport Welcome Island Little Flatland Island Sault Ste. Marie Airport Wawa Airport
Legend:
buoy Buoy
land station Land Station

Great Lakes - Lake Superior Area

Another Region

Features

New Predicting and Alerting Coastal Flooding Program

Find out about coastal flooding coverage, forecasts and warnings in your region

Date modified: